| time (UTC) | temp F | wind direction | speed MPH | gust MPH | rain 1hr in | rain 24hr in | rain mn in | humidity % | barometer mb |
| 20260502220323 | 51 | 297 | 5.0 | 15.0 | 0.00 | 0.00 | 0.00 | 46 | 1011.3 |
| 20260502215833 | 51 | 288 | 8.0 | 15.0 | 0.00 | 0.00 | 0.00 | 47 | 1011.3 |
| 20260502215344 | 51 | 277 | 6.0 | 11.0 | 0.00 | 0.00 | 0.00 | 47 | 1011.2 |
| 20260502214835 | 51 | 293 | 7.0 | 14.0 | 0.00 | 0.00 | 0.00 | 46 | 1011.3 |
| 20260502214326 | 52 | 298 | 5.0 | 11.0 | 0.00 | 0.00 | 0.00 | 47 | 1011.3 |
| 20260502213838 | 51 | 288 | 7.0 | 11.0 | 0.00 | 0.00 | 0.00 | 48 | 1011.2 |
| 20260502213328 | 51 | 297 | 5.0 | 9.0 | 0.00 | 0.00 | 0.00 | 47 | 1011.3 |
| 20260502212820 | 51 | 289 | 3.0 | 9.0 | 0.00 | 0.00 | 0.00 | 47 | 1011.3 |
| 20260502212331 | 51 | 97 | 2.0 | 9.0 | 0.00 | 0.00 | 0.00 | 47 | 1011.3 |
| 20260502211842 | 51 | 267 | 4.0 | 12.0 | 0.00 | 0.00 | 0.00 | 47 | 1011.3 |
| 20260502211317 | 52 | 302 | 7.0 | 12.0 | 0.00 | 0.00 | 0.00 | 46 | 1011.3 |
| 20260502210829 | 52 | 120 | 4.0 | 11.0 | 0.00 | 0.00 | 0.00 | 47 | 1011.2 |
| 20260502210341 | 52 | 277 | 4.0 | 13.0 | 0.00 | 0.00 | 0.00 | 48 | 1011.3 |
| 20260502205830 | 52 | 313 | 5.0 | 13.0 | 0.00 | 0.00 | 0.00 | 46 | 1011.2 |
| 20260502205322 | 52 | 277 | 6.0 | 11.0 | 0.00 | 0.00 | 0.00 | 47 | 1011.2 |
| 20260502204813 | 52 | 296 | 4.0 | 9.0 | 0.00 | 0.00 | 0.00 | 48 | 1011.2 |
| 20260502204346 | 52 | 281 | 5.0 | 11.0 | 0.00 | 0.00 | 0.00 | 49 | 1011.2 |
| 20260502203816 | 52 | 299 | 2.0 | 11.0 | 0.00 | 0.00 | 0.00 | 47 | 1011.2 |
| 20260502203328 | 52 | 9 | 4.0 | 12.0 | 0.00 | 0.00 | 0.00 | 47 | 1011.2 |
| 20260502202819 | 52 | 291 | 5.0 | 12.0 | 0.00 | 0.00 | 0.00 | 47 | 1011.3 |
| 20260502202315 | 52 | 286 | 7.0 | 12.0 | 0.00 | 0.00 | 0.00 | 47 | 1011.2 |
| 20260502201828 | 52 | 297 | 6.0 | 12.0 | 0.00 | 0.00 | 0.00 | 46 | 1011.2 |
| 20260502201320 | 52 | 276 | 3.0 | 11.0 | 0.00 | 0.00 | 0.00 | 48 | 1011.3 |
| 20260502200831 | 52 | 98 | 4.0 | 11.0 | 0.00 | 0.00 | 0.00 | 48 | 1011.2 |
| 20260502200323 | 52 | 103 | 3.0 | 12.0 | 0.00 | 0.00 | 0.00 | 49 | 1011.3 |
| 20260502195813 | 52 | 299 | 6.0 | 14.0 | 0.00 | 0.00 | 0.00 | 46 | 1011.3 |
| 20260502195326 | 52 | 291 | 5.0 | 14.0 | 0.00 | 0.00 | 0.00 | 48 | 1011.3 |
| 20260502194818 | 52 | 279 | 8.0 | 13.0 | 0.00 | 0.00 | 0.00 | 47 | 1011.5 |
| 20260502194313 | 53 | 236 | 4.0 | 11.0 | 0.00 | 0.00 | 0.00 | 48 | 1011.6 |
| 20260502193825 | 53 | 276 | 3.0 | 11.0 | 0.00 | 0.00 | 0.00 | 52 | 1011.7 |
| 20260502193318 | 52 | 266 | 5.0 | 10.0 | 0.00 | 0.00 | 0.00 | 52 | 1011.7 |
| 20260502192830 | 52 | 19 | 4.0 | 12.0 | 0.00 | 0.00 | 0.00 | 49 | 1011.7 |
| 20260502192322 | 52 | 256 | 6.0 | 13.0 | 0.00 | 0.00 | 0.00 | 52 | 1011.8 |
| 20260502191814 | 52 | 306 | 9.0 | 13.0 | 0.00 | 0.00 | 0.00 | 51 | 1011.9 |
| 20260502191327 | 51 | 308 | 8.0 | 12.0 | 0.00 | 0.00 | 0.00 | 52 | 1012.1 |
| 20260502190818 | 52 | 264 | 6.0 | 13.0 | 0.00 | 0.00 | 0.00 | 51 | 1012.1 |
| 20260502190315 | 52 | 281 | 6.0 | 13.0 | 0.00 | 0.00 | 0.00 | 48 | 1012.2 |
| 20260502185846 | 52 | 312 | 4.0 | 12.0 | 0.00 | 0.00 | 0.00 | 49 | 1012.2 |
| 20260502185317 | 53 | 313 | 5.0 | 12.0 | 0.00 | 0.00 | 0.00 | 48 | 1012.3 |
| 20260502184828 | 53 | 274 | 5.0 | 15.0 | 0.00 | 0.00 | 0.00 | 48 | 1012.4 |
| 20260502184321 | 52 | 296 | 8.0 | 15.0 | 0.00 | 0.00 | 0.00 | 52 | 1012.4 |
| 20260502183833 | 51 | 277 | 5.0 | 14.0 | 0.00 | 0.00 | 0.00 | 48 | 1012.5 |
| 20260502183344 | 52 | 275 | 8.0 | 14.0 | 0.00 | 0.00 | 0.00 | 47 | 1012.4 |
| 20260502182814 | 53 | 307 | 7.0 | 10.0 | 0.00 | 0.00 | 0.00 | 49 | 1012.5 |
| 20260502182326 | 53 | 313 | 3.0 | 11.0 | 0.00 | 0.00 | 0.00 | 53 | 1012.6 |
| 20260502181822 | 52 | 311 | 8.0 | 13.0 | 0.00 | 0.00 | 0.00 | 54 | 1012.6 |
| 20260502181314 | 52 | 282 | 7.0 | 13.0 | 0.00 | 0.00 | 0.00 | 55 | 1012.6 |
| 20260502180827 | 52 | 310 | 6.0 | 12.0 | 0.00 | 0.00 | 0.00 | 51 | 1012.7 |
| 20260502180319 | 52 | 288 | 6.0 | 12.0 | 0.00 | 0.00 | 0.00 | 51 | 1012.8 |
| 20260502170320 | 51 | 291 | 5.0 | 9.0 | 0.00 | 0.00 | 0.00 | 54 | 1013.1 |
| 20260502164348 | 49 | 284 | 5.0 | 11.0 | 0.00 | 0.00 | 0.00 | 54 | 1013.3 |
| 20260502163843 | 49 | 306 | 3.0 | 12.0 | 0.00 | 0.00 | 0.00 | 55 | 1013.2 |
| 20260502163315 | 49 | 298 | 5.0 | 12.0 | 0.00 | 0.00 | 0.00 | 56 | 1013.3 |
| 20260502162827 | 49 | 240 | 4.0 | 11.0 | 0.00 | 0.00 | 0.00 | 53 | 1013.2 |
| 20260502162320 | 49 | 53 | 3.0 | 9.0 | 0.00 | 0.00 | 0.00 | 54 | 1013.4 |
| 20260502161852 | 49 | 264 | 4.0 | 9.0 | 0.00 | 0.00 | 0.00 | 56 | 1013.5 |
| 20260502161344 | 48 | 157 | 1.0 | 11.0 | 0.00 | 0.00 | 0.00 | 55 | 1013.5 |
| 20260502160815 | 48 | 295 | 6.0 | 11.0 | 0.00 | 0.00 | 0.00 | 55 | 1013.5 |
| 20260502160326 | 49 | 360 | 4.0 | 10.0 | 0.00 | 0.00 | 0.00 | 56 | 1013.5 |
| 20260502152323 | 50 | 284 | 5.0 | 11.0 | 0.00 | 0.00 | 0.00 | 59 | 1013.7 |
| 20260502151816 | 49 | 274 | 3.0 | 10.0 | 0.00 | 0.00 | 0.00 | 59 | 1013.8 |
| 20260502151329 | 49 | 295 | 5.0 | 9.0 | 0.00 | 0.00 | 0.00 | 61 | 1013.8 |
| 20260502150825 | 48 | 275 | 4.0 | 10.0 | 0.00 | 0.00 | 0.00 | 63 | 1013.8 |
| 20260502150316 | 48 | 288 | 5.0 | 10.0 | 0.00 | 0.00 | 0.00 | 60 | 1013.8 |
| 20260502130317 | 43 | 295 | 4.0 | 10.0 | 0.00 | 0.00 | 0.00 | 71 | 1013.9 |
| 20260502123331 | 43 | 286 | 4.0 | 12.0 | 0.00 | 0.00 | 0.00 | 70 | 1013.9 |
| 20260502122823 | 43 | 293 | 7.0 | 12.0 | 0.00 | 0.00 | 0.00 | 69 | 1013.7 |
| 20260502122314 | 43 | 290 | 7.0 | 12.0 | 0.00 | 0.00 | 0.00 | 70 | 1013.6 |
| 20260502121827 | 43 | 292 | 6.0 | 12.0 | 0.00 | 0.00 | 0.00 | 71 | 1013.8 |
| 20260502121322 | 42 | 295 | 7.0 | 12.0 | 0.00 | 0.00 | 0.00 | 71 | 1013.6 |
| 20260502120834 | 42 | 267 | 4.0 | 11.0 | 0.00 | 0.00 | 0.00 | 71 | 1013.7 |
| 20260502120325 | 42 | 311 | 5.0 | 11.0 | 0.00 | 0.00 | 0.00 | 71 | 1013.7 |
| 20260502115816 | 42 | 292 | 5.0 | 11.0 | 0.00 | 0.00 | 0.00 | 72 | 1013.6 |
| 20260502115327 | 42 | 290 | 6.0 | 11.0 | 0.00 | 0.00 | 0.00 | 73 | 1013.7 |
| 20260502114839 | 42 | 290 | 5.0 | 10.0 | 0.00 | 0.00 | 0.00 | 73 | 1013.6 |
| 20260502114330 | 42 | 289 | 5.0 | 11.0 | 0.00 | 0.00 | 0.00 | 74 | 1013.6 |
| 20260502113821 | 41 | 267 | 6.0 | 11.0 | 0.00 | 0.00 | 0.00 | 74 | 1013.7 |
| 20260502113313 | 41 | 283 | 4.0 | 10.0 | 0.00 | 0.00 | 0.00 | 75 | 1013.8 |
| 20260502112830 | 41 | 283 | 5.0 | 10.0 | 0.00 | 0.00 | 0.00 | 75 | 1013.8 |
| 20260502112321 | 41 | 280 | 4.0 | 10.0 | 0.00 | 0.00 | 0.00 | 75 | 1013.7 |
| 20260502111834 | 41 | 285 | 6.0 | 10.0 | 0.00 | 0.00 | 0.00 | 75 | 1013.8 |
| 20260502111324 | 41 | 287 | 1.0 | 5.0 | 0.00 | 0.00 | 0.00 | 75 | 1013.8 |
| 20260502110816 | 41 | 284 | 2.0 | 7.0 | 0.00 | 0.00 | 0.00 | 75 | 1013.8 |
| 20260502110329 | 41 | 282 | 1.0 | 7.0 | 0.00 | 0.00 | 0.00 | 75 | 1013.8 |
| 20260502105818 | 41 | 287 | 2.0 | 9.0 | 0.00 | 0.00 | 0.00 | 74 | 1013.7 |
| 20260502105330 | 40 | 276 | 6.0 | 9.0 | 0.00 | 0.00 | 0.00 | 74 | 1013.6 |
| 20260502104826 | 40 | 288 | 3.0 | 8.0 | 0.00 | 0.00 | 0.00 | 74 | 1013.7 |
| 20260502104318 | 40 | 287 | 2.0 | 8.0 | 0.00 | 0.00 | 0.00 | 74 | 1013.6 |
| 20260502103831 | 40 | 9 | 4.0 | 6.0 | 0.00 | 0.00 | 0.00 | 74 | 1013.5 |
| 20260502103322 | 40 | 278 | 3.0 | 8.0 | 0.00 | 0.00 | 0.00 | 75 | 1013.8 |
| 20260502102834 | 40 | 258 | 5.0 | 8.0 | 0.00 | 0.00 | 0.00 | 75 | 1013.8 |
| 20260502102346 | 40 | 299 | 3.0 | 9.0 | 0.00 | 0.00 | 0.00 | 75 | 1013.7 |
| 20260502101837 | 40 | 268 | 3.0 | 9.0 | 0.00 | 0.00 | 0.00 | 75 | 1013.6 |
| 20260502101348 | 40 | 276 | 3.0 | 7.0 | 0.00 | 0.00 | 0.00 | 75 | 1013.7 |
| 20260502100819 | 40 | 289 | 3.0 | 8.0 | 0.00 | 0.00 | 0.00 | 75 | 1013.7 |
| 20260502100330 | 41 | 286 | 3.0 | 8.0 | 0.00 | 0.00 | 0.00 | 75 | 1013.6 |
| 20260502091328 | 41 | 292 | 5.0 | 16.0 | 0.00 | 0.00 | 0.00 | 75 | 1013.3 |
| 20260502090824 | 41 | 297 | 8.0 | 15.0 | 0.00 | 0.00 | 0.00 | 75 | 1013.2 |
| 20260502090316 | 41 | 264 | 8.0 | 14.0 | 0.00 | 0.00 | 0.00 | 75 | 1013.3 |
| 20260502071313 | 43 | 288 | 3.0 | 9.0 | 0.00 | 0.00 | 0.00 | 75 | 1012.7 |
| 20260502070825 | 44 | 246 | 3.0 | 11.0 | 0.00 | 0.00 | 0.00 | 75 | 1012.7 |
| 20260502070317 | 44 | 290 | 4.0 | 11.0 | 0.00 | 0.00 | 0.00 | 74 | 1012.8 |
| 20260502065830 | 44 | 289 | 5.0 | 13.0 | 0.00 | 0.00 | 0.00 | 74 | 1012.8 |
| 20260502065322 | 44 | 306 | 2.0 | 13.0 | 0.00 | 0.00 | 0.00 | 74 | 1012.7 |
| 20260502064833 | 44 | 294 | 4.0 | 11.0 | 0.00 | 0.00 | 0.00 | 74 | 1012.7 |
| 20260502064346 | 44 | 290 | 5.0 | 11.0 | 0.00 | 0.00 | 0.00 | 74 | 1012.6 |
| 20260502063817 | 45 | 286 | 5.0 | 14.0 | 0.00 | 0.00 | 0.00 | 74 | 1012.6 |
| 20260502063329 | 45 | 9 | 4.0 | 14.0 | 0.00 | 0.00 | 0.00 | 73 | 1012.6 |
| 20260502062820 | 45 | 360 | 4.0 | 10.0 | 0.00 | 0.00 | 0.00 | 73 | 1012.5 |
| 20260502062332 | 45 | 306 | 5.0 | 13.0 | 0.00 | 0.00 | 0.00 | 74 | 1012.4 |
| 20260502061824 | 45 | 293 | 8.0 | 15.0 | 0.00 | 0.00 | 0.00 | 73 | 1012.4 |
| 20260502061340 | 45 | 263 | 8.0 | 15.0 | 0.00 | 0.00 | 0.00 | 73 | 1012.4 |
| 20260502060831 | 46 | 273 | 6.0 | 15.0 | 0.00 | 0.00 | 0.00 | 73 | 1012.4 |
| 20260502060322 | 46 | 24 | 7.0 | 15.0 | 0.00 | 0.00 | 0.00 | 73 | 1012.4 |
| 20260502055832 | 46 | 300 | 7.0 | 15.0 | 0.00 | 0.00 | 0.00 | 73 | 1012.5 |
| 20260502055325 | 46 | 311 | 6.0 | 17.0 | 0.00 | 0.00 | 0.00 | 73 | 1012.7 |
| 20260502054816 | 46 | 292 | 9.0 | 17.0 | 0.00 | 0.00 | 0.00 | 73 | 1012.7 |
| 20260502054328 | 46 | 295 | 9.0 | 16.0 | 0.00 | 0.00 | 0.00 | 72 | 1012.7 |
| 20260502053820 | 46 | 298 | 10.0 | 17.0 | 0.00 | 0.00 | 0.00 | 71 | 1012.5 |
| 20260502053316 | 46 | 261 | 10.0 | 16.0 | 0.00 | 0.00 | 0.00 | 72 | 1012.5 |
| 20260502052828 | 46 | 289 | 10.0 | 16.0 | 0.00 | 0.00 | 0.00 | 72 | 1012.5 |
| 20260502052318 | 46 | 294 | 9.0 | 16.0 | 0.00 | 0.00 | 0.00 | 71 | 1012.5 |
| 20260502051851 | 47 | 284 | 8.0 | 16.0 | 0.00 | 0.00 | 0.00 | 72 | 1012.5 |
| 20260502051321 | 47 | 265 | 7.0 | 12.0 | 0.00 | 0.00 | 0.00 | 72 | 1012.5 |
| 20260502050813 | 47 | 264 | 8.0 | 18.0 | 0.00 | 0.00 | 0.00 | 73 | 1012.6 |
| 20260502050326 | 47 | 273 | 9.0 | 18.0 | 0.00 | 0.00 | 0.00 | 72 | 1012.5 |
| 20260502045836 | 47 | 296 | 8.0 | 11.0 | 0.00 | 0.00 | 0.00 | 73 | 1012.4 |
| 20260502045327 | 47 | 289 | 6.0 | 14.0 | 0.00 | 0.00 | 0.00 | 73 | 1012.4 |
| 20260502044818 | 48 | 257 | 9.0 | 14.0 | 0.00 | 0.00 | 0.00 | 73 | 1012.4 |
| 20260502044314 | 48 | 284 | 8.0 | 14.0 | 0.00 | 0.00 | 0.00 | 73 | 1012.5 |
| 20260502043846 | 48 | 277 | 8.0 | 14.0 | 0.00 | 0.00 | 0.00 | 73 | 1012.6 |
| 20260502043317 | 49 | 279 | 8.0 | 15.0 | 0.00 | 0.00 | 0.00 | 72 | 1012.4 |
| 20260502042849 | 49 | 292 | 8.0 | 14.0 | 0.00 | 0.00 | 0.00 | 72 | 1012.6 |
| 20260502042320 | 49 | 285 | 9.0 | 19.0 | 0.00 | 0.00 | 0.00 | 71 | 1012.7 |
| 20260502041853 | 49 | 288 | 6.0 | 16.0 | 0.00 | 0.00 | 0.00 | 71 | 1012.4 |
| 20260502041324 | 49 | 300 | 9.0 | 15.0 | 0.00 | 0.00 | 0.00 | 71 | 1012.5 |
| 20260502040816 | 49 | 294 | 9.0 | 15.0 | 0.00 | 0.00 | 0.00 | 70 | 1012.2 |
| 20260502040328 | 49 | 264 | 9.0 | 20.0 | 0.00 | 0.00 | 0.00 | 70 | 1012.2 |
| 20260502035818 | 50 | 360 | 8.0 | 20.0 | 0.00 | 0.00 | 0.00 | 70 | 1012.1 |
| 20260502035313 | 50 | 130 | 4.0 | 11.0 | 0.00 | 0.00 | 0.00 | 69 | 1012.4 |
| 20260502034825 | 50 | 310 | 4.0 | 10.0 | 0.00 | 0.00 | 0.00 | 69 | 1012.4 |
| 20260502034337 | 50 | 274 | 3.0 | 11.0 | 0.00 | 0.00 | 0.00 | 69 | 1012.4 |
| 20260502033828 | 50 | 20 | 2.0 | 8.0 | 0.00 | 0.00 | 0.00 | 69 | 1012.5 |
| 20260502033340 | 50 | 298 | 3.0 | 10.0 | 0.00 | 0.00 | 0.00 | 68 | 1012.4 |
| 20260502032831 | 50 | 15 | 3.0 | 10.0 | 0.00 | 0.00 | 0.00 | 68 | 1012.3 |
| 20260502032322 | 50 | 99 | 2.0 | 14.0 | 0.00 | 0.00 | 0.00 | 67 | 1012.1 |
| 20260502031814 | 50 | 36 | 5.0 | 14.0 | 0.00 | 0.00 | 0.00 | 67 | 1012.1 |
| 20260502031347 | 50 | 309 | 7.0 | 14.0 | 0.00 | 0.00 | 0.00 | 67 | 1012.0 |
| 20260502030838 | 50 | 22 | 5.0 | 13.0 | 0.00 | 0.00 | 0.00 | 67 | 1012.0 |
| 20260502030349 | 51 | 304 | 7.0 | 12.0 | 0.00 | 0.00 | 0.00 | 68 | 1012.0 |
| 20260502025839 | 51 | 271 | 5.0 | 11.0 | 0.00 | 0.00 | 0.00 | 68 | 1012.1 |
| 20260502025314 | 51 | 292 | 2.0 | 11.0 | 0.00 | 0.00 | 0.00 | 68 | 1011.9 |
| 20260502024846 | 51 | 288 | 5.0 | 13.0 | 0.00 | 0.00 | 0.00 | 68 | 1011.9 |
| 20260502024316 | 51 | 279 | 6.0 | 13.0 | 0.00 | 0.00 | 0.00 | 67 | 1011.9 |
| 20260502023830 | 51 | 281 | 5.0 | 13.0 | 0.00 | 0.00 | 0.00 | 67 | 1012.1 |
| 20260502023341 | 51 | 93 | 2.0 | 11.0 | 0.00 | 0.00 | 0.00 | 68 | 1012.1 |
| 20260502022832 | 51 | 294 | 6.0 | 12.0 | 0.00 | 0.00 | 0.00 | 67 | 1012.0 |
| 20260502022344 | 51 | 290 | 5.0 | 12.0 | 0.00 | 0.00 | 0.00 | 68 | 1012.1 |
| 20260502021815 | 51 | 298 | 6.0 | 12.0 | 0.00 | 0.00 | 0.00 | 68 | 1012.1 |
| 20260502021327 | 51 | 286 | 6.0 | 12.0 | 0.00 | 0.00 | 0.00 | 68 | 1012.0 |
| 20260502020819 | 51 | 263 | 6.0 | 12.0 | 0.00 | 0.00 | 0.00 | 68 | 1012.2 |
| 20260502020314 | 51 | 275 | 4.0 | 15.0 | 0.00 | 0.00 | 0.00 | 69 | 1012.2 |
| 20260502015824 | 52 | 288 | 8.0 | 15.0 | 0.00 | 0.00 | 0.00 | 68 | 1012.2 |
| 20260502015336 | 52 | 276 | 10.0 | 14.0 | 0.00 | 0.00 | 0.00 | 68 | 1011.8 |
| 20260502014827 | 52 | 300 | 7.0 | 17.0 | 0.00 | 0.00 | 0.00 | 67 | 1012.0 |
| 20260502014319 | 52 | 271 | 10.0 | 16.0 | 0.00 | 0.00 | 0.00 | 66 | 1011.9 |
| 20260502013831 | 53 | 264 | 9.0 | 13.0 | 0.00 | 0.00 | 0.00 | 63 | 1012.0 |
| 20260502013323 | 53 | 302 | 8.0 | 17.0 | 0.00 | 0.00 | 0.00 | 62 | 1011.9 |
| 20260502012814 | 53 | 280 | 8.0 | 16.0 | 0.00 | 0.00 | 0.00 | 62 | 1012.0 |
| 20260502012326 | 53 | 291 | 10.0 | 17.0 | 0.00 | 0.00 | 0.00 | 61 | 1011.6 |
| 20260502011822 | 54 | 284 | 11.0 | 16.0 | 0.00 | 0.00 | 0.00 | 59 | 1011.2 |
| 20260502011314 | 54 | 313 | 10.0 | 16.0 | 0.00 | 0.00 | 0.00 | 58 | 1011.0 |
| 20260502010826 | 55 | 294 | 10.0 | 23.0 | 0.00 | 0.00 | 0.00 | 57 | 1010.9 |
| 20260502010318 | 55 | 287 | 9.0 | 15.0 | 0.00 | 0.00 | 0.00 | 56 | 1010.7 |
| 20260502005828 | 55 | 15 | 7.0 | 15.0 | 0.00 | 0.00 | 0.00 | 56 | 1010.7 |
| 20260502005320 | 55 | 294 | 9.0 | 15.0 | 0.00 | 0.00 | 0.00 | 55 | 1010.5 |
| 20260502004832 | 56 | 292 | 8.0 | 15.0 | 0.00 | 0.00 | 0.00 | 55 | 1010.4 |
| 20260502004324 | 56 | 281 | 7.0 | 14.0 | 0.00 | 0.00 | 0.00 | 55 | 1010.0 |
| 20260502003820 | 56 | 285 | 6.0 | 14.0 | 0.00 | 0.00 | 0.00 | 57 | 1009.9 |
| 20260502003332 | 56 | 285 | 3.0 | 12.0 | 0.00 | 0.00 | 0.00 | 59 | 1010.1 |
| 20260502002824 | 57 | 289 | 7.0 | 13.0 | 0.00 | 0.00 | 0.00 | 57 | 1009.9 |
| 20260502002315 | 56 | 300 | 4.0 | 10.0 | 0.00 | 0.00 | 0.00 | 57 | 1009.7 |
| 20260502001827 | 56 | 312 | 3.0 | 7.0 | 0.00 | 0.00 | 0.00 | 58 | 1009.6 |
| 20260502001319 | 56 | 239 | 0.0 | 3.0 | 0.00 | 0.00 | 0.00 | 61 | 1009.5 |
| 20260502000832 | 56 | 312 | 1.0 | 3.0 | 0.00 | 0.00 | 0.00 | 60 | 1009.5 |
| 20260502000324 | 56 | 309 | 0.0 | 4.0 | 0.00 | 0.00 | 0.00 | 61 | 1009.3 |
| 20260501235837 | 56 | 292 | 3.0 | 4.0 | 0.00 | 0.00 | 0.00 | 61 | 1009.3 |
| 20260501235347 | 56 | 46 | 0.0 | 1.0 | 0.00 | 0.00 | 0.00 | 60 | 1009.1 |
| 20260501234818 | 56 | 46 | 0.0 | 0.0 | 0.00 | 0.00 | 0.00 | 63 | 1009.1 |
| 20260501234330 | 56 | 46 | 0.0 | 2.0 | 0.00 | 0.00 | 0.00 | 61 | 1009.0 |
| 20260501233821 | 56 | 9 | 0.0 | 2.0 | 0.00 | 0.00 | 0.00 | 62 | 1009.0 |
| 20260501233333 | 56 | 9 | 0.0 | 3.0 | 0.00 | 0.00 | 0.00 | 57 | 1009.0 |
| 20260501232825 | 56 | 9 | 0.0 | 3.0 | 0.00 | 0.00 | 0.00 | 60 | 1009.0 |
| 20260501232317 | 56 | 310 | 2.0 | 5.0 | 0.00 | 0.00 | 0.00 | 60 | 1008.9 |
| 20260501231849 | 57 | 269 | 2.0 | 5.0 | 0.00 | 0.00 | 0.00 | 60 | 1009.1 |
| 20260501231319 | 57 | 282 | 2.0 | 5.0 | 0.00 | 0.00 | 0.00 | 58 | 1009.1 |
| 20260501230815 | 57 | 279 | 3.0 | 4.0 | 0.00 | 0.00 | 0.00 | 58 | 1009.0 |
| 20260501230328 | 57 | 267 | 1.0 | 7.0 | 0.00 | 0.00 | 0.00 | 57 | 1008.9 |
| 20260501225817 | 58 | 288 | 2.0 | 8.0 | 0.00 | 0.00 | 0.00 | 55 | 1008.7 |
| 20260501225330 | 58 | 15 | 3.0 | 13.0 | 0.00 | 0.00 | 0.00 | 54 | 1008.8 |
| 20260501224821 | 59 | 314 | 4.0 | 13.0 | 0.00 | 0.00 | 0.00 | 52 | 1009.1 |
| 20260501224313 | 59 | 82 | 4.0 | 11.0 | 0.00 | 0.00 | 0.00 | 50 | 1009.4 |
| 20260501223825 | 59 | 262 | 2.0 | 4.0 | 0.00 | 0.00 | 0.00 | 53 | 1009.4 |
| 20260501223317 | 59 | 268 | 1.0 | 4.0 | 0.00 | 0.00 | 0.00 | 51 | 1009.1 |
| 20260501222813 | 60 | 303 | 2.0 | 4.0 | 0.00 | 0.00 | 0.00 | 51 | 1009.0 |
| 20260501222325 | 60 | 300 | 3.0 | 5.0 | 0.00 | 0.00 | 0.00 | 49 | 1008.9 |
| 20260501221837 | 60 | 306 | 3.0 | 5.0 | 0.00 | 0.00 | 0.00 | 49 | 1008.9 |
| 20260501221329 | 61 | 296 | 2.0 | 4.0 | 0.00 | 0.00 | 0.00 | 49 | 1008.8 |
| 20260501220820 | 61 | 283 | 2.0 | 4.0 | 0.00 | 0.00 | 0.00 | 46 | 1008.8 |